This is the latest recevied weather packets stored in our database for station/object KV4OP. If no packets are shown the sender has not sent any weather packets the latest 10 day(s).
| Time | Temp. | Humidity | Pressure | Rain* | Wind** | Luminosity | Snow |
|---|---|---|---|---|---|---|---|
| 1777474254 | 26.67° C | 68% | 1018.4 hPa | 0 mm | - | - | - |
| 1777473954 | 26.67° C | 68% | 1018.3 hPa | 0 mm | - | - | - |
| 1777473651 | 26.11° C | 70% | 1018.4 hPa | 0 mm | - | - | - |
| 1777473351 | 25.56° C | 71% | 1018.5 hPa | 0 mm | - | - | - |
| 1777473050 | 25.56° C | 73% | 1018.4 hPa | 0 mm | - | - | - |
| 1777472749 | 25.56° C | 73% | 1018.5 hPa | 0 mm | - | - | - |
| 1777472452 | 25° C | 75% | 1018.5 hPa | 0 mm | - | - | - |
| 1777472163 | 25.56° C | 74% | 1018.6 hPa | 0 mm | - | - | - |
| 1777471847 | 25.56° C | 75% | 1018.6 hPa | 0 mm | - | - | - |
| 1777471548 | 25.56° C | 76% | 1018.4 hPa | 0 mm | - | - | - |
| 1777471253 | 25° C | 76% | 1018.6 hPa | 0 mm | - | - | - |
| 1777470947 | 25.56° C | 76% | 1018.8 hPa | 0 mm | - | - | - |
| 1777470646 | 25.56° C | 76% | 1018.7 hPa | 0 mm | - | - | - |
| 1777470353 | 25° C | 77% | 1018.7 hPa | 0 mm | - | - | - |
| 1777470046 | 25° C | 77% | 1018.4 hPa | 0 mm | - | - | - |
| 1777469744 | 25° C | 78% | 1018.3 hPa | 0 mm | - | - | - |
| 1777469442 | 25° C | 78% | 1018.2 hPa | 0 mm | - | - | - |
| 1777469142 | 24.44° C | 79% | 1018.1 hPa | 0 mm | - | - | - |
| 1777468842 | 24.44° C | 80% | 1018.1 hPa | 0 mm | - | - | - |
| 1777468539 | 23.89° C | 81% | 1018.3 hPa | 0 mm | - | - | - |
| 1777468237 | 23.89° C | 83% | 1018.6 hPa | 0 mm | - | - | - |
| 1777467935 | 23.33° C | 85% | 1018.7 hPa | 0 mm | - | - | - |
| 1777467636 | 22.78° C | 87% | 1018.6 hPa | 0 mm | - | - | - |
| 1777467334 | 22.22° C | 88% | 1018.6 hPa | 0 mm | - | - | - |
| 1777467031 | 22.22° C | 89% | 1018.4 hPa | 0 mm | - | - | - |
* Rain latest hour (hover to see other rain measurements)
** Current wind speed in m/s (hover to see current wind gust speed)